Вернуться в каталог

CZ-6A DEB

АктивенSSO
NORAD 54386·DEBRIS·🇨🇳 China

Запущен Nov 11, 2022 с Taiyuan Satellite Launch Center

Loading…

Ближайшие Пролёты (ближайшие 24 часа)

TLE

СвежийSource: Space-Track

Эпоха: Sep 14, 2026, 08:56 UTC

1 54386U 22151DJ  26257.37261192  .00000703  00000-0  49064-3 0  9996
2 54386  98.9408 235.0003 0127031 200.2650 159.3446 13.98022588195203

Отслеживайте CZ-6A DEB в реальном времени с AllMySat

Download on the App Store